[[{"header":{"parameterUnit":"m.s-1","parameterCategory":1,"la1":30.2991,"la2":30.254,"lo1":-89.0895,"lo2":-89.0444,"dy":0.0017,"dx":0.0017,"nx":28,"ny":28,"refTime":"2024-08-08T21:00:00:Z","depth":0,"parameterNumber":2,"parameterNumberName":"U-component_of_WINDS"},"data":[0,0,0,0,0,0,0,0,0,0,0,0,0,0,0,0,0,0,0,0,0,0,0,0,0,0,0,0,0,0,0,0,0,0,0,0,0,0,0,0,0,0,0,0,0,0,0,0,0,0,0,0,0,0,0,0,0,0,0.6211,0.621,0,0.6171,0.617,0.617,0.6184,0.6185,0.6186,0.6187,0.6143,0.6141,0.6139,0,0,0,0,0,0,0,0,0,0,0,0,0,0.6297,0.6296,0.6211,0.621,0.621,0.6171,0.617,0.617,0.6184,0.6185,0.6186,0.6187,0.6144,0.6141,0.6139,0,0,0,0,0,0,0,0,0,0,0,0,0,0.6259,0.6295,0.6211,0.6212,0.6212,0.6171,0.617,0.6169,0.6184,0.6185,0.6187,0.6188,0.6145,0.6142,0.6139,0.6093,0,0,0.6129,0.6128,0,0,0,0,0,0,0,0,0.6261,0.6255,0.6212,0.6212,0.6212,0.6184,0.6185,0.6144,0.6184,0.6194,0.6187,0.6189,0.6155,0.6152,0.6141,0.6091,0.6089,0.6129,0.6127,0.6126,0.6125,0,0,0,0,0,0,0,0.6263,0.6257,0.6195,0.6212,0.6211,0.6214,0.621,0.6177,0.6168,0.6194,0.6195,0.619,0.6155,0.6144,0.614,0.6088,0.6129,0.6127,0.6125,0.6124,0.5998,0.5997,0,0,0,0,0,0,0.6267,0.6259,0.6196,0.6194,0.624,0.6212,0.6207,0.6191,0.6168,0.6166,0.6189,0.6191,0.6148,0.6144,0.6139,0.6082,0.6126,0.6123,0.6122,0.6,0.5998,0.5996,0,0,0,0,0,0,0.6268,0.6261,0.6198,0.6227,0.6219,0.6209,0.6191,0.619,0.6178,0.6164,0.6163,0.6179,0.6149,0.6143,0.6104,0.6081,0.6122,0.6119,0.6001,0.5999,0.5997,0.597,0,0,0,0,0,0,0.6271,0.6261,0.6244,0.6226,0.6217,0.6164,0.619,0.6188,0.6173,0.6176,0.6155,0.6152,0.615,0.6109,0.6101,0.6078,0.6117,0.6003,0.6,0.5998,0.5973,0.5967,0.5962,0,0,0,0,0,0.6274,0.6238,0.6243,0.6235,0.6196,0.6163,0.6158,0.6156,0.6172,0.6154,0.6145,0.6153,0.6086,0.6105,0.6096,0.6072,0.6005,0.6001,0.5998,0.5975,0.5968,0.5963,0,0,0,0,0,0,0.6252,0.6235,0.6241,0.6198,0.6182,0.6165,0.6143,0.6149,0.6127,0.613,0.6129,0.6124,0.6084,0.6074,0.6096,0.6026,0.6047,0.6042,0.6033,0.6026,0.6021,0.6023,0.6114,0,0,0,0,0,0.6242,0.6218,0.6204,0.6168,0.6159,0.6153,0.6138,0.6139,0.6122,0.6114,0.6103,0.6085,0.606,0.6043,0.6019,0.5973,0.5968,0.5952,0.5947,0.5942,0.5937,0.5911,0.5903,0.5985,0.5985,0.5985,0,0,0.6221,0.6209,0.6194,0.6163,0.615,0.6124,0.6146,0.6118,0.6098,0.611,0.6072,0.6064,0.6044,0.6001,0.5981,0.5991,0.5914,0.5938,0.5935,0.5931,0.5907,0.5899,0.5892,0.5982,0.5983,0.5983,0,0,0.6169,0.6159,0.6127,0.6114,0.6095,0.6091,0.6084,0.6067,0.6061,0.6024,0.6033,0.6009,0.5966,0.5951,0.5938,0.5883,0.5889,0.5876,0.5846,0.5821,0.5815,0.5809,0.5788,0.578,0.5871,0.5871,0.5871,0,0.6145,0.6107,0.6109,0.608,0.6066,0.6077,0.6044,0.6032,0.6006,0.5995,0.6008,0.5954,0.5942,0.5895,0.5882,0.5872,0.5862,0.5876,0.5816,0.581,0.5805,0.5784,0.5777,0.5869,0.5869,0.5869,0.587,0,0.6078,0.6051,0.6027,0.6003,0.5987,0.5956,0.5952,0.5936,0.5939,0.5933,0.5895,0.5881,0.5854,0.5844,0.5846,0.5798,0.5805,0.5817,0.5837,0.5795,0.5776,0.5768,0.5867,0.5867,0.5868,0.5868,0,0,0.6008,0.5987,0.5978,0.5967,0.5948,0.5927,0.5897,0.5872,0.5857,0.5839,0.5813,0.5777,0.5788,0.5774,0.5775,0.5753,0.5708,0.5767,0.5767,0.5755,0.5653,0.5642,0.5633,0.5714,0.5712,0.5711,0.5654,0,0.5953,0.59,0.5902,0.5852,0.5827,0.5839,0.5813,0.5798,0.5793,0.577,0.5764,0.5738,0.5756,0.5747,0.5726,0.5718,0.5688,0.5723,0.5688,0.5686,0.569,0.5624,0.5612,0.5559,0.5647,0.5646,0.5645,0,0.5881,0.5862,0.581,0.5796,0.5785,0.5761,0.5739,0.5718,0.5702,0.5699,0.5684,0.5688,0.5657,0.5682,0.5638,0.5662,0.5648,0.5642,0.564,0.5634,0.5661,0.5614,0.5542,0.5533,0.5633,0.5634,0.5635,0,0.5833,0.5795,0.5759,0.5749,0.5732,0.5715,0.5706,0.5692,0.5677,0.5657,0.5647,0.5624,0.5611,0.5593,0.5591,0.5609,0.5547,0.5571,0.5543,0.5542,0.5526,0.5527,0.5448,0.5522,0.5522,0.5522,0.5522,0,0.577,0.5737,0.5737,0.5714,0.5678,0.5681,0.5645,0.5638,0.5626,0.5601,0.5611,0.5588,0.5588,0.5565,0.5564,0.5527,0.5522,0.5518,0.5517,0.5515,0.5515,0.5504,0.5507,0.552,0.552,0.5521,0.5521,0,0.5708,0.5707,0.5668,0.5656,0.5652,0.5626,0.5614,0.5593,0.559,0.5559,0.5552,0.5546,0.5519,0.5517,0.5485,0.5485,0.544,0.5445,0.5445,0.5445,0.5416,0.5418,0.5325,0.5312,0.5397,0.5396,0.5395,0,0.5667,0.5642,0.5627,0.5613,0.5604,0.5579,0.5565,0.5567,0.5551,0.5532,0.5512,0.5487,0.5466,0.5423,0.5415,0.5391,0.5394,0.5363,0.539,0.5389,0.5391,0.5391,0.5388,0.5357,0.5356,0.5355,0.5355,0,0.5593,0.5594,0.5572,0.5551,0.5533,0.5516,0.5501,0.5488,0.5488,0.547,0.5443,0.5427,0.5396,0.537,0.5347,0.5338,0.5345,0.5347,0.5339,0.5335,0.5335,0.5333,0.5428,0.5348,0.5349,0.5349,0.535,0.535,0.5538,0.5517,0.5503,0.5479,0.5468,0.5453,0.5432,0.5427,0.5405,0.538,0.5384,0.5354,0.5339,0.5309,0.5298,0.5274,0.5284,0.5273,0.5269,0.5266,0.5262,0.5342,0.5271,0.5271,0.5271,0.5271,0.5271,0,0.5463,0.5455,0.5433,0.5411,0.5393,0.5404,0.5388,0.5371,0.5344,0.533,0.531,0.528,0.5255,0.5247,0.5222,0.5205,0.5208,0.5198,0.5198,0.5196,0.5255,0.5264,0.5196,0.5196,0.5196,0.5196,0.5196,0.5196,0.5421,0.5385,0.5385,0.5343,0.5336,0.5307,0.5296,0.5283,0.5271,0.5237,0.5217,0.5212,0.52,0.5176,0.5153,0.5152,0.5141,0.5129,0.5129,0.5184,0.5191,0.5199,0.5206,0.5128,0.5128,0.5071,0.507,0.507]},{"header":{"parameterUnit":"m.s-1","parameterCategory":1,"la1":30.2991,"la2":30.254,"lo1":-89.0895,"lo2":-89.0444,"dy":0.0017,"dx":0.0017,"nx":28,"ny":28,"refTime":"2024-08-08T21:00:00:Z","depth":0,"parameterNumber":3,"parameterNumberName":"V-component_of_WINDS"},"data":[0,0,0,0,0,0,0,0,0,0,0,0,0,0,0,0,0,0,0,0,0,0,0,0,0,0,0,0,0,0,0,0,0,0,0,0,0,0,0,0,0,0,0,0,0,0,0,0,0,0,0,0,0,0,0,0,0,0,-3.4858,-3.4859,0,-3.4958,-3.4959,-3.496,-3.4922,-3.492,-3.4918,-3.4916,-3.5013,-3.5017,-3.5022,0,0,0,0,0,0,0,0,0,0,0,0,0,-3.4631,-3.4636,-3.4858,-3.486,-3.4861,-3.4957,-3.4959,-3.496,-3.4923,-3.492,-3.4917,-3.4915,-3.5011,-3.5017,-3.5022,0,0,0,0,0,0,0,0,0,0,0,0,0,-3.473,-3.4637,-3.4858,-3.4854,-3.4854,-3.4957,-3.4959,-3.496,-3.4923,-3.492,-3.4916,-3.4913,-3.5009,-3.5016,-3.5023,-3.5135,0,0,-3.5045,-3.5048,0,0,0,0,0,0,0,0,-3.4725,-3.4738,-3.4853,-3.4854,-3.4855,-3.4924,-3.4914,-3.5019,-3.4924,-3.4897,-3.4915,-3.4912,-3.4986,-3.4995,-3.502,-3.5139,-3.5143,-3.5045,-3.505,-3.5053,-3.5055,0,0,0,0,0,0,0,-3.4718,-3.4734,-3.4897,-3.4855,-3.4856,-3.4845,-3.4856,-3.4934,-3.4959,-3.4899,-3.4897,-3.4909,-3.4986,-3.5014,-3.5022,-3.5145,-3.5045,-3.5051,-3.5056,-3.5059,-3.5358,-3.5361,0,0,0,0,0,0,-3.4711,-3.4729,-3.4894,-3.49,-3.478,-3.4852,-3.4864,-3.4905,-3.4958,-3.4963,-3.4912,-3.4907,-3.5003,-3.5014,-3.5026,-3.5159,-3.5053,-3.5059,-3.5063,-3.5354,-3.5359,-3.5363,0,0,0,0,0,0,-3.4706,-3.4726,-3.489,-3.4814,-3.4834,-3.486,-3.4907,-3.4909,-3.4937,-3.4968,-3.4972,-3.4936,-3.5001,-3.5016,-3.5108,-3.5162,-3.5062,-3.5069,-3.535,-3.5356,-3.5361,-3.5426,0,0,0,0,0,0,-3.47,-3.4725,-3.4769,-3.4815,-3.4838,-3.4972,-3.491,-3.4913,-3.495,-3.4945,-3.4992,-3.4996,-3.5,-3.5097,-3.5115,-3.5169,-3.5074,-3.5345,-3.5352,-3.5359,-3.5419,-3.5433,-3.5445,0,0,0,0,0,-3.4692,-3.4783,-3.4771,-3.4791,-3.4894,-3.4976,-3.4989,-3.4992,-3.4955,-3.4998,-3.5017,-3.4995,-3.5153,-3.5107,-3.5126,-3.5184,-3.5342,-3.535,-3.5358,-3.5413,-3.5431,-3.5445,0,0,0,0,0,0,-3.4741,-3.4789,-3.4777,-3.4885,-3.4927,-3.4969,-3.5024,-3.501,-3.5062,-3.5054,-3.5055,-3.5066,-3.516,-3.5181,-3.5129,-3.5294,-3.5241,-3.5254,-3.5277,-3.5293,-3.5306,-3.5299,-3.508,0,0,0,0,0,-3.4764,-3.4828,-3.4866,-3.4958,-3.4979,-3.4998,-3.5034,-3.5033,-3.5075,-3.5092,-3.5119,-3.5159,-3.5218,-3.5257,-3.5313,-3.5422,-3.5431,-3.5471,-3.5484,-3.5494,-3.5505,-3.5563,-3.5581,-3.539,-3.539,-3.539,0,0,-3.4813,-3.4847,-3.4887,-3.4968,-3.5001,-3.5065,-3.5013,-3.5084,-3.5132,-3.5103,-3.5191,-3.5212,-3.5257,-3.5358,-3.5404,-3.5379,-3.556,-3.5505,-3.5513,-3.5518,-3.5574,-3.5592,-3.5608,-3.5396,-3.5395,-3.5394,0,0,-3.4935,-3.4968,-3.5047,-3.5081,-3.5131,-3.5142,-3.5161,-3.5206,-3.5219,-3.5309,-3.5288,-3.5343,-3.5445,-3.5478,-3.5508,-3.5641,-3.5622,-3.5659,-3.5727,-3.5783,-3.5798,-3.5812,-3.5858,-3.5875,-3.567,-3.567,-3.567,0,-3.4989,-3.5087,-3.509,-3.5163,-3.5198,-3.5176,-3.5256,-3.5287,-3.5352,-3.5377,-3.5348,-3.5474,-3.5503,-3.5611,-3.5643,-3.5669,-3.5689,-3.5654,-3.5796,-3.581,-3.5822,-3.5866,-3.5884,-3.5674,-3.5674,-3.5673,-3.5673,0,-3.515,-3.5218,-3.5277,-3.5341,-3.5383,-3.5459,-3.5472,-3.5514,-3.5508,-3.5523,-3.5613,-3.5647,-3.5709,-3.5734,-3.573,-3.5841,-3.5824,-3.5796,-3.5743,-3.5844,-3.5886,-3.5903,-3.568,-3.5679,-3.5677,-3.5676,0,0,-3.5306,-3.5371,-3.5392,-3.5421,-3.5473,-3.5525,-3.5599,-3.5661,-3.5696,-3.5741,-3.5802,-3.5888,-3.5862,-3.5896,-3.5895,-3.5945,-3.6047,-3.591,-3.5911,-3.5934,-3.617,-3.6191,-3.6211,-3.6034,-3.6038,-3.604,-3.6166,0,-3.5431,-3.5563,-3.5567,-3.5687,-3.5749,-3.5728,-3.5792,-3.5831,-3.5846,-3.5899,-3.5915,-3.5976,-3.5937,-3.5958,-3.6006,-3.6024,-3.6094,-3.6015,-3.6089,-3.6092,-3.6079,-3.6232,-3.6255,-3.6372,-3.6182,-3.6185,-3.6187,0,-3.5596,-3.5647,-3.5773,-3.5816,-3.5842,-3.59,-3.5956,-3.6009,-3.6051,-3.6058,-3.6096,-3.6087,-3.616,-3.6106,-3.6206,-3.6152,-3.6182,-3.6196,-3.62,-3.6207,-3.6146,-3.6242,-3.6409,-3.6427,-3.6213,-3.6211,-3.6209,0,-3.5695,-3.5796,-3.5884,-3.5909,-3.5962,-3.6003,-3.6026,-3.6066,-3.6102,-3.615,-3.6174,-3.623,-3.626,-3.6303,-3.6308,-3.6268,-3.6409,-3.6355,-3.6415,-3.6415,-3.6446,-3.6444,-3.6619,-3.6466,-3.6466,-3.6466,-3.6465,0,-3.5835,-3.5913,-3.593,-3.5984,-3.607,-3.6073,-3.6157,-3.6177,-3.6212,-3.6268,-3.6253,-3.6306,-3.6311,-3.6364,-3.6369,-3.645,-3.6464,-3.6471,-3.6471,-3.6472,-3.6471,-3.6492,-3.6484,-3.647,-3.6469,-3.6468,-3.6468,0,-3.5961,-3.5976,-3.6071,-3.6113,-3.6125,-3.6186,-3.6221,-3.6272,-3.6285,-3.6357,-3.6374,-3.6394,-3.6456,-3.6466,-3.6539,-3.6542,-3.664,-3.6632,-3.6626,-3.6625,-3.6684,-3.6678,-3.6879,-3.6905,-3.6736,-3.6737,-3.6739,0,-3.6049,-3.6108,-3.6157,-3.6195,-3.622,-3.6281,-3.6318,-3.6323,-3.6362,-3.6414,-3.6458,-3.6519,-3.6569,-3.6669,-3.6689,-3.6744,-3.6737,-3.6803,-3.6745,-3.6744,-3.6737,-3.6733,-3.6738,-3.6814,-3.6816,-3.6818,-3.6819,0,-3.6203,-3.6207,-3.6263,-3.6321,-3.6366,-3.6411,-3.6454,-3.6485,-3.6495,-3.6539,-3.6604,-3.6642,-3.6716,-3.6777,-3.6831,-3.6853,-3.6838,-3.6837,-3.6854,-3.6855,-3.6849,-3.6853,-3.6656,-3.6832,-3.6831,-3.683,-3.6829,-3.6829,-3.6312,-3.6364,-3.6406,-3.6468,-3.6501,-3.6541,-3.659,-3.661,-3.6664,-3.6727,-3.6726,-3.6796,-3.6835,-3.6907,-3.6932,-3.6986,-3.6964,-3.6989,-3.6995,-3.7001,-3.7006,-3.6841,-3.6996,-3.6996,-3.6995,-3.6995,-3.6995,0,-3.6465,-3.6491,-3.6548,-3.6609,-3.6657,-3.6639,-3.6685,-3.6726,-3.6788,-3.6827,-3.6876,-3.6949,-3.7007,-3.7032,-3.7088,-3.7126,-3.712,-3.7141,-3.7138,-3.7143,-3.7023,-3.7003,-3.7145,-3.7145,-3.7145,-3.7145,-3.7145,-3.7145,-3.655,-3.6636,-3.6645,-3.6746,-3.6771,-3.6841,-3.6869,-3.6905,-3.6936,-3.7019,-3.7067,-3.7084,-3.7116,-3.7175,-3.7226,-3.7232,-3.7253,-3.7277,-3.7279,-3.7167,-3.7151,-3.7137,-3.7118,-3.7282,-3.7282,-3.7394,-3.7395,-3.7396]}]]